Location: Chervonnoye
(48.6000°N, 34.4000°E)
Time: 12:18:52
(UTC+00:00)

deb Kosmos-2237 - Pass Details

Date: 22 June 2021
Orbit: 850 x 1045 km, 71.0° (Epoch: 25 July)

Event Time Altitude Azimuth Distance (km) Brightness Sun altitude
Rises 19:27:39 0° 236° (SW) 3,586 ? -11.7°
Reaches altitude 10° 19:30:19 10° 244° (WSW) 2,676 ? -12.0°
Maximum altitude 19:36:05 38° 311° (NW) 1,473 ? -12.5°
Drops below altitude 10° 19:42:08 10° 18° (NNE) 2,808 ? -12.9°
Sets 19:45:00 0° 27° (NNE) 3,784 ? -13.2°
